Hobart, OK

5:48 PM CST on February 05, 2016 (GMT -0600)
Hobart Municipal

Weather History for KHBR - November, 2013

Change the Weather History Date:

Thursday, November 14, 2013

  Actual Average Record
Temperature  
Mean Temperature 44 °F -  
Max Temperature 55 °F 58 °F 75 °F (1999)
Min Temperature 33 °F 38 °F 24 °F (2014)
Degree Days  
Heating Degree Days 21    
Moisture  
Dew Point 29 °F    
Average Humidity 59    
Maximum Humidity 72    
Minimum Humidity 42    
Precipitation  
Precipitation 0.01 in - - ()
Sea Level Pressure  
Sea Level Pressure 30.07 in    
Wind  
Wind Speed 17 mph (South)    
Max Wind Speed 26 mph    
Max Gust Speed 34 mph    
Visibility 10 miles    
Events Rain    
Averages and records for this station are not official NWS values.
T = Trace of Precipitation, MM = Missing Value Source: NWS Daily Summary

Daily Weather History Graph

Daily Weather History Graph

Search for Another Location

Airport or City:

Trip Planner

Search our weather history database for the weather conditions in past years. The results will help you decide how hot, cold, wet, or windy it might be!

Date:

Astronomy

Nov. 14, 2013 Rise Set
Actual Time 7:09 AM CST 5:31 PM CST
Civil Twilight 6:43 AM CST 5:57 PM CST
Nautical Twilight 6:12 AM CST 6:28 PM CST
Astronomical Twilight 5:42 AM CST 6:58 PM CST
Moon 3:48 PM CST (11/14) 4:12 AM CST (11/14)
Length of Visible Light 11h 14m
Length of Day
10h 21m
Waxing Gibbous, 92% of the Moon is Illuminated
Nov 14
Waxing Gibbous
Nov 17
Full
Nov 25
Last Quarter
Dec 2
New
Dec 9
First Quarter

Hourly Weather History & Observations

Time (CST) Temp. Windchill Dew Point Humidity Pressure Visibility Wind Dir Wind Speed Gust Speed Precip Events Conditions
12:53 AM 36.0 °F 25.6 °F 21.0 °F 55% 30.25 in 10.0 mi South 18.4 mph - N/A   Clear
1:53 AM 35.1 °F 24.8 °F 21.9 °F 59% 30.23 in 10.0 mi South 17.3 mph - N/A   Clear
2:53 AM 34.0 °F 24.2 °F 23.0 °F 64% 30.21 in 10.0 mi SSW 15.0 mph - N/A   Clear
3:53 AM 33.1 °F 23.9 °F 24.1 °F 70% 30.20 in 10.0 mi SSW 12.7 mph - N/A   Clear
4:53 AM 33.1 °F 22.6 °F 24.1 °F 70% 30.19 in 10.0 mi SSW 16.1 mph - N/A   Clear
5:53 AM 34.0 °F 23.8 °F 24.1 °F 67% 30.18 in 10.0 mi SSW 16.1 mph - N/A   Clear
6:53 AM 33.1 °F 23.0 °F 25.0 °F 72% 30.17 in 10.0 mi SSW 15.0 mph - N/A   Clear
7:53 AM 33.1 °F 22.2 °F 25.0 °F 72% 30.15 in 10.0 mi South 17.3 mph - N/A   Clear
8:53 AM 37.0 °F 28.9 °F 27.0 °F 67% 30.15 in 10.0 mi South 12.7 mph - N/A   Clear
9:53 AM 42.1 °F 33.6 °F 27.0 °F 55% 30.13 in 10.0 mi SSW 18.4 mph - N/A   Partly Cloudy
10:53 AM 48.0 °F - 28.0 °F 46% 30.10 in 10.0 mi SSW 25.3 mph 29.9 mph N/A   Mostly Cloudy
11:53 AM 52.0 °F - 30.0 °F 43% 30.07 in 10.0 mi SSW 21.9 mph 28.8 mph N/A   Clear
12:53 PM 55.0 °F - 32.0 °F 42% 30.00 in 10.0 mi SSW 24.2 mph 31.1 mph N/A   Partly Cloudy
1:53 PM 55.0 °F - 32.0 °F 42% 29.99 in 10.0 mi South 26.5 mph 34.5 mph N/A   Mostly Cloudy
2:53 PM 53.1 °F - 32.0 °F 45% 29.98 in 10.0 mi South 15.0 mph 24.2 mph N/A   Scattered Clouds
3:53 PM 51.1 °F - 33.1 °F 50% 29.97 in 10.0 mi South 21.9 mph 28.8 mph 0.00 in Rain Light Rain
4:53 PM 46.9 °F - 37.9 °F 71% 29.98 in 10.0 mi South 15.0 mph - 0.01 in   Overcast
5:53 PM 46.0 °F 40.6 °F 35.1 °F 66% 29.98 in 10.0 mi South 11.5 mph - N/A   Overcast
6:53 PM 46.9 °F - 33.1 °F 59% 29.98 in 10.0 mi South 15.0 mph - 0.00 in   Overcast
7:53 PM 46.9 °F - 33.1 °F 59% 29.98 in 10.0 mi SSE 15.0 mph - N/A   Overcast
8:53 PM 48.0 °F - 32.0 °F 54% 29.97 in 10.0 mi South 13.8 mph - N/A   Overcast
9:53 PM 46.9 °F - 32.0 °F 56% 29.96 in 10.0 mi SSE 10.4 mph - N/A   Overcast
10:53 PM 45.0 °F 41.8 °F 32.0 °F 60% 29.95 in 10.0 mi SSE 5.8 mph - N/A   Clear
11:53 PM 43.0 °F 40.3 °F 32.0 °F 65% 29.94 in 10.0 mi SE 4.6 mph - N/A   Clear